Weather Roundup
Issued by NWS Corpus Christi, TX

Home | Current Version | Previous Version | Text Only | Print | Product List | Glossary On
Versions: 1 2 3 4 5 6 7 8 9 10 11 12 13 14 15 16 17 18 19 20 21 22 23 24 25 26 27 28 29 30 31 32 33 34 35 36 37 38 39 40 41 42 43 44 45 46 47 48 49 50
000
ASUS44 KCRP 280310
HRRCRP

SOUTH TEXAS REGIONAL WEATHER ROUNDUP
NATIONAL WEATHER SERVICE CORPUS CHRISTI TX
1000 PM CDT MON JUL 27 2015


TXZ229>244-280400-
...CORPUS CHRISTI AREA OBSERVATIONS...

CITY           SKY/WX    TMP DP  RH WIND       PRES   REMARKS
CORPUS CHRISTI PTCLDY    83  77  82 SE15      29.90R HX  92
NAS CORPUS CHR PTCLDY    82  77  84 SE15      29.90R HX  90
ROCKPORT       MOCLDY    85  78  80 SE13      29.90R HX  96
KINGSVILLE NAS PTCLDY    83  79  88 SE14G25   29.89R HX  94
ALICE          CLEAR     83  75  77 SE13G21   29.88R HX  90
FALFURRIAS     PTCLDY    83  74  73 SE9G16    29.88R
$$

...VICTORIA AREA OBSERVATIONS...

CITY           SKY/WX    TMP DP  RH WIND       PRES   REMARKS
VICTORIA       CLEAR     83  77  82 SE13      29.92R HX  92
BEEVILLE       FAIR      82  78  88 SE9       29.91R HX  90
PLEASANTON     CLEAR     84  71  64 E8        29.91R
SAN ANTONIO    PTCLDY    86  69  56 S15       29.92R HX  90
$$

...LAREDO AREA OBSERVATIONS...

CITY           SKY/WX    TMP DP  RH WIND       PRES   REMARKS
LAREDO         CLEAR     92  68  45 SE14      29.85R HX  96
COTULLA        CLEAR     88  75  65 SE18G26   29.87R HX  97
DEL RIO        CLEAR     92  61  35 E9        29.83R HX  92
MCALLEN        CLEAR     86  74  67 SE17G26   29.88R HX  94
HEBBRONVILLE     N/A     84  73  70 E13       29.89R HX  91
$$

...OTHER TEXAS OBSERVATIONS...

CITY           SKY/WX    TMP DP  RH WIND       PRES   REMARKS
BROWNSVILLE    CLEAR     83  77  82 SE13      29.89R HX  92
HOUSTON        PTCLDY    86  73  65 S9        29.93R HX  93
COL. STATION   CLEAR     86  71  60 S10       29.91R HX  91
AUSTIN         CLEAR     85  70  60 S9        29.91R
WACO           CLEAR     89  66  46 SE9       29.90R HX  91
FORT WORTH     CLEAR     90  65  43 SE9       29.89R HX  92
WICHITA FALLS  CLEAR     84  66  54 SE10      29.88R
LUBBOCK        PTCLDY    86  62  44 SE13      29.95R
EL PASO        CLOUDY    85  55  35 SE13      29.98R
$$

...MARINE OBSERVATIONS...

STATION/POSITION TIME  SKY/WX   TEMP    WIND        PRES    VSBY  WAVE   SWELL
                                AIR SEA DIR/SP/G                  HT/PER HT/PER
                 (UTC)          (F)     (DEG/KT/KT) (MB)    (MI)  (FT/S) (FT/S)
PORT ARANSAS     0300            82 84  140/ 11/ 12 1013.5R
BUOY 90 E PORT A 0250            86 86  150/ 12/ 14 1013.2R         3/ 6
BUOY 45 SE BAFFI 0250            84 83  150/ 16/ 17 1012.1R         3/ 5
BUOY 200 E PT IS 0250            87 87  150/ 12/ 14 1014.2R         1/ 4
BUOY 15 E GALVES 0250            86 88  170/ 12/ 14 1013.0R         2/ 5
$$


USA.gov is the U.S. government's official web portal to all federal, state and local government web resources and services.